Regional Weather Roundup
Issued by NWS Lake Charles, LA

Current Version | Previous Version | Text Only | Print | Product List | Glossary On
Versions: 1 2 3 4 5 6 7 8 9 10 11 12 13 14 15 16 17 18 19 20 21 22 23 24 25 26 27 28 29 30 31 32 33 34 35 36 37 38 39 40 41 42 43 44 45 46 47 48 49 50
000
ASUS44 KLCH 302010
RWRLCH
RWRLCH
REGIONAL WEATHER ROUNDUP
NATIONAL WEATHER SERVICE LAKE CHARLES LA
300 PM CDT TUE JUN 30 2015

Note: "fair" indicates few or no clouds below 12,000 feet with no
significant weather and/or obstructions to visibility.


ACROSS SOUTHEAST TEXAS

CITY           SKY/WX    TMP DP  RH WIND       PRES   REMARKS
BEAUMONT       TSTM      76  72  87 N6        30.06R
BEAUMONT CITY  TSTM      73  70  90 CALM      30.07F
ORANGE         TSTM      73  73 100 CALM      30.10R
JASPER         PTSUNNY   87  72  62 S22G29    30.09R
$$

ACROSS CENTRAL LOUISIANA

CITY           SKY/WX    TMP DP  RH WIND       PRES   REMARKS
LEESVILLE      PTSUNNY   79  64  61 S8G22     30.04F THUNDER
FULLERTON      MOCLDY    75  70  84 CALM      30.02F THUNDER
ALEXANDRIA INT SUNNY     91  72  53 VRB6      29.97F
ESLER FIELD    SUNNY     94  73  50 W7        29.98F HX 103
DERIDDER         N/A     79  66  63 S10       30.06F
OAKDALE        CLOUDY    71  67  89 SW9       30.03F
OPELOUSAS        N/A     85  75  72 SW14G22   30.02F
$$

ACROSS SOUTHWEST AND SOUTH CENTRAL LOUISIANA

CITY           SKY/WX    TMP DP  RH WIND       PRES   REMARKS
SULPHUR        TSTM      73  71  94 SE5       30.07F
LAKE CHARLES   LGT RAIN  72  70  93 S5        30.05F
CHENNAULT INT  LGT RAIN  73  70  88 S16       30.06F
CAMERON PHI    MOCLDY    77  73  88 N8        30.11R
DEQUINCY         N/A     68  68 100 W6        30.08F
JENNINGS       CLOUDY    75  70  84 SW7       30.07S
LAFAYETTE      CLOUDY    79  70  74 SE3       30.06S THUNDER
NEW IBERIA     CLOUDY    79  76  90 CALM      30.06F
ABBEVILLE      NOT AVBL
PATTERSON      PTSUNNY   84  73  70 SW13G18   30.07S
SALT POINT       N/A     87  76  69 VRB7      30.05
$$

SELECTED SITES ACROSS THE REGION

CITY           SKY/WX    TMP DP  RH WIND       PRES   REMARKS
HOUSTON BUSH   TSTM      77  73  87 VRB5      30.03R
HOUSTON HOBBY  CLOUDY    77  68  73 S6        30.01F
GALVESTON      CLOUDY    86  77  74 S14       30.04F
COLLEGE STAT   PTSUNNY   88  73  61 S5        30.00F
CONROE         CLOUDY    88  73  61 N5        30.00F
HUNTSVILLE     MOSUNNY   88  74  63 VRB3      30.01F
LUFKIN         MOSUNNY   92  75  57 S6        30.01F HX 103
SHREVEPORT     MOSUNNY   92  70  48 CALM      29.97F
MONROE         PTSUNNY   92  74  55 W12       29.97F HX 101
NATCHEZ MS     MOSUNNY   90  73  58 SW7       30.01F
BATON ROUGE    TSTM      75  70  84 SE15      30.09R
N.O. INTL ARPT PTSUNNY   90  71  53 S16       30.05S
SLIDELL        MOSUNNY   88  74  63 SW5       30.04F
$$

MARINE REPORTS

STATION/POSITION TIME  TEMP    WIND        PRES    VSBY  WAVE
                       AIR SEA DIR/SP/G                  HT/PER
                 (UTC) (F)     (DEG/KT/KT) (MB)    (MI)  (FT/S)
BUOY 30 S HIGH I 1950   85 83  190/ 10/ 12 1016.9F         3/ 6
SEA RIM ST PARK  1900   81     170/  9/ 10 1017.9F
PORT ARTHUR      1900      84  170/  2/  4 1018.0F
SABINE PASS N    1900   83 84  200/ 10/ 14 1017.8F
TEXAS POINT      NOT AVBL
CALCASIEU PASS   1900   82 84  210/  8/ 12   N/A
LK CHARLES BEACH 1900   72 86                N/A
MARSH ISLAND     1900   88     210/  4/  7   N/A           0
FRESH WATER LOCK 1900   85 85  190/ 13/ 16 1018.3F
AMERADA PASS     1900   87 85  200/  3/ 10 1018.3F
$$



USA.gov is the U.S. government's official web portal to all federal, state and local government web resources and services.